Regional Weather Roundup
Issued by NWS

Home | Current Version | Previous Version | Graphics & Text | Print | Product List | Glossary On
Versions: 1 2 3 4 5 6 7 8 9 10 11 12 13 14 15 16 17 18 19 20 21 22 23 24 25 26 27 28 29 30 31 32 33 34 35 36 37 38 39 40 41 42 43 44 45 46 47 48 49 50
000
ASUS43 KDMX 250307
RWRIA

WEATHER ROUNDUP FOR IOWA
NATIONAL WEATHER SERVICE DES MOINES IA
1000 PM CDT FRI APR 24 2015

NOTE: "FAIR" INDICATES FEW OR NO CLOUDS BELOW 12,000 FEET WITH NO
SIGNIFICANT WEATHER AND/OR OBSTRUCTIONS TO VISIBILITY.

* - THESE STATIONS ARE NOT NWS STATIONS...THUS NOT UNDER NWS
QUALITY CONTROL.  THEY ALSO DO NOT REPORT WEATHER SUCH
AS PRECIPITATION OR FOG.

IAZ001>003-012>014-020>022-031>034-043>046-250400-
   NORTHWEST IOWA

CITY           SKY/WX    TMP DP  RH WIND       PRES   REMARKS
CARROLL *      CLOUDY    52  48  87 E17G23    29.64R
CHEROKEE *     PTCLDY    50  48  93 E16G24    29.62R
DENISON *      CLOUDY    57  55  94 SE10G18   29.59R
LE MARS *      MOCLDY    55  50  82 SE9G21    29.60R
ORANGE CITY *  CLEAR     52  46  82 E12G22    29.61R
SHELDON *      CLOUDY    50  50 100 E21G31    29.61R
SIOUX CITY     MOCLDY    61  50  67 SE12      29.57R
SPENCER        MOCLDY    48  44  86 E15       29.65S
STORM LAKE *   CLOUDY    48  46  93 SE16G24   29.64R
$$

IAZ055>058-069>071-079>083-090>094-250400-
   SOUTHWEST IOWA

CITY           SKY/WX    TMP DP  RH WIND       PRES   REMARKS
ATLANTIC *     CLOUDY    57  54  88 E10G17    29.60S
AUDUBON *      CLOUDY    54  50  87 E12       29.63R
CLARINDA *     CLOUDY    55  54  94 VRB7      29.61R
COUNCIL BLFS * CLOUDY    57  57 100 E12       29.58R
CRESTON *      CLOUDY    55  55 100 SE14      29.61F
HARLAN  *      CLOUDY    55  55 100 SE13G21   29.63R
LAMONI         CLOUDY    56  54  93 E6        29.63S
RED OAK *      CLOUDY    57  55  94 SE3       29.58F
SHENANDOAH *   MOCLDY    57  54  88 E12       29.58S
$$

IAZ047>049-059>061-072>074-084-250400-
   CENTRAL IOWA

CITY           SKY/WX    TMP DP  RH WIND       PRES   REMARKS
AMES           CLOUDY    49  43  80 E8G18     29.68F
ANKENY *       CLOUDY    48  46  93 E14       29.67F
CHARITON *     CLOUDY    54  54 100 SE9       29.65S FOG
DES MOINES     CLOUDY    51  46  83 E14       29.67S
GRINNELL*      CLOUDY    46  43  87 E16G22    29.70F
KNOXVILLE *    CLOUDY    50  46  87 E10G17    29.65F
MARSHALLTOWN   CLOUDY    46  42  86 E16       29.70F
PELLA *        CLOUDY    50  48  93 E9G16     29.69S
PERRY *        CLOUDY    50  46  87 E15       29.65R
$$

IAZ004>006-015-016-023>025-035-036-250400-
   NORTH CENTRAL IOWA

CITY           SKY/WX    TMP DP  RH WIND       PRES   REMARKS
ALGONA *       CLOUDY    46  45  93 E15G22    29.70S
CLARION *      CLOUDY    46  46 100 E18G26    29.70S
ESTHERVILLE    CLOUDY    45  43  93 SE16      29.68F
FORT DODGE *   CLOUDY    46  43  87 E17G24    29.69R
MASON CITY     CLOUDY    45  41  86 SE14      29.75S
FOREST CITY *  CLOUDY    43  41  93 E16G22    29.73S
IOWA FALLS *   CLOUDY    46  43  87 E12       29.73R
$$

IAZ007>011-017>019-026>030-037>042-050>054-066-250400-
   NORTHEAST IOWA

CITY           SKY/WX    TMP DP  RH WIND       PRES   REMARKS
CEDAR RAPIDS   LGT RAIN  46 N/A N/A E16       29.76R
CHARLES CITY * CLOUDY    45  43  93 E18       29.77F
CLINTON *      CLOUDY    45  41  87 E15       29.84S
DECORAH *      CLOUDY    43  39  87 E14       29.81S
DUBUQUE        CLOUDY    43  39  86 E13       29.82F
MONTICELLO *   CLOUDY    45  45 100 E13G21    29.79S
OELWEIN *      CLOUDY    45  41  87 E15G22    29.79R
WATERLOO       CLOUDY    46  41  82 E15       29.75S
$$

IAZ064-065-067-068-078-250400-
   EAST CENTRAL IOWA

CITY           SKY/WX    TMP DP  RH WIND       PRES   REMARKS
DAVENPORT      CLOUDY    46  42  86 E15       29.80S
IOWA CITY      MOCLDY    47  43  86 E13G25    29.76S
MT. PLEASANT * CLOUDY    57  36  44 E12       29.72S
MUSCATINE *    CLOUDY    52  41  66 E13G18    29.76S
QUAD CITIES    CLOUDY    49  41  74 E18       29.79F
$$

IAZ062-063-075>077-085>089-095>099-250400-
   SOUTHEAST IOWA

CITY           SKY/WX    TMP DP  RH WIND       PRES   REMARKS
BURLINGTON     CLOUDY    58  37  45 SE13      29.73S
FAIRFIELD *    CLOUDY    54  45  71 E9        29.69F
FORT MADISON * CLOUDY    57  37  47 SE13      29.73S
KEOKUK *       CLOUDY    59  39  47 SE9       29.70S
OSKALOOSA *    CLOUDY    50  46  87 E15       29.67F
CENTERVILLE *  CLOUDY    57  55  94 E6        29.67F
OTTUMWA        CLOUDY    52  47  83 E9        29.67F
WASHINGTON *   CLOUDY    50  50 100 E14       29.72F
$$

ABBREVIATIONS USED IN REMARKS
   TC - TEMPERATURES IN CELSIUS
  WCI - WIND CHILL INDEX
   HX - HEAT INDEX
  VSB - VISIBILITY
$$



USA.gov is the U.S. government's official web portal to all federal, state and local government web resources and services.